Weather History for Drummond Island, MI

Change the Weather History Date:

Monday, December 23, 2013

  Actual Average (KCIU) Record (KCIU)
Temperature  
Mean Temperature 0 °F -  
Max Temperature 6 °F 25 °F 39 °F (2001)
Min Temperature -7 °F 9 °F -16 °F (1989)
Degree Days  
Heating Degree Days 66    
Moisture  
Dew Point -4 °F    
Average Humidity 79    
Maximum Humidity 86    
Minimum Humidity 70    
Precipitation  
Precipitation 0.00 in - - ()
Sea Level Pressure  
Sea Level Pressure 30.21 in    
Wind  
Wind Speed 5 mph (North)    
Max Wind Speed 8 mph    
Max Gust Speed -    
Visibility 8 miles    
Events Snow    
Averages and records for this station are not official NWS values.
T = Trace of Precipitation, MM = Missing Value Source: NWS Daily Summary

Daily Weather History Graph

Daily Weather History Graph

Search for Another Location

Airport:

Trip Planner

Search our weather history database for the weather conditions in past years. The results will help you decide how hot, cold, wet, or windy it might be!

Date:

Astronomy

Dec. 23, 2013 Rise Set
Actual Time 8:14 AM EST 4:53 PM EST
Civil Twilight 7:40 AM EST 5:28 PM EST
Nautical Twilight 7:02 AM EST 6:06 PM EST
Astronomical Twilight 6:25 AM EST 6:42 PM EST
Moon 11:21 PM EST (12/23) 11:22 AM EST (12/23)
Length of Visible Light 9h 47m
Length of Day
8h 38m
Waning Gibbous, 68% of the Moon is Illuminated
Dec 23
Waning Gibbous
Dec 25
Last Quarter
Jan 1
New
Jan 7
First Quarter
Jan 15
Full

Hourly Weather History & Observations

Time (EST) Temp. Windchill Dew Point Humidity Pressure Visibility Wind Dir Wind Speed Gust Speed Precip Events Conditions
12:15 AM 5.9 °F -3.0 °F 2.1 °F 84% 30.07 in - North 4.6 mph - N/A   Overcast
12:35 AM 5.9 °F -4.5 °F 1.9 °F 84% 30.06 in - NNE 5.8 mph - N/A   Overcast
12:56 AM 5.9 °F -1.1 °F 2.3 °F 85% 30.06 in - North 3.5 mph - N/A   Overcast
1:15 AM 6.3 °F -4.1 °F 2.3 °F 84% 30.07 in - North 5.8 mph - N/A   Overcast
1:35 AM 5.7 °F -3.2 °F 1.9 °F 84% 30.08 in - North 4.6 mph - N/A   Unknown
1:55 AM 5.4 °F -3.6 °F 1.4 °F 84% 30.08 in - North 4.6 mph - N/A   Unknown
2:15 AM 5.0 °F -8.1 °F 1.0 °F 84% 30.09 in - North 8.1 mph - N/A   Unknown
2:36 AM 4.6 °F -6.0 °F 0.3 °F 82% 30.09 in - NNE 5.8 mph - N/A   Overcast
2:55 AM 4.6 °F -7.4 °F 0.1 °F 82% 30.10 in - North 6.9 mph - N/A   Unknown
3:15 AM 4.5 °F -7.6 °F -0.4 °F 80% 30.10 in - North 6.9 mph - N/A   Overcast
3:35 AM 4.1 °F -9.2 °F -0.6 °F 81% 30.11 in 4.0 mi North 8.1 mph - N/A Snow Light Snow
3:55 AM 4.1 °F -8.0 °F -0.6 °F 81% 30.11 in 5.0 mi North 6.9 mph - N/A Snow Light Snow
4:15 AM 4.1 °F -8.0 °F -0.8 °F 80% 30.12 in 5.0 mi North 6.9 mph - N/A Snow Light Snow
4:35 AM 3.9 °F -9.4 °F -1.3 °F 79% 30.11 in 7.0 mi North 8.1 mph - N/A Snow Light Snow
4:55 AM 3.9 °F -5.3 °F -1.3 °F 79% 30.12 in 10.0 mi North 4.6 mph - N/A Snow Light Snow
5:15 AM 3.9 °F -8.2 °F -1.5 °F 78% 30.12 in 7.0 mi North 6.9 mph - N/A Snow Light Snow
5:35 AM 3.7 °F -9.6 °F -1.7 °F 78% 30.12 in 5.0 mi North 8.1 mph - N/A Snow Light Snow
5:55 AM 3.6 °F -7.3 °F -2.0 °F 78% 30.13 in 5.0 mi North 5.8 mph - N/A Snow Light Snow
6:16 AM 3.2 °F -7.8 °F -2.2 °F 78% 30.13 in 7.0 mi North 5.8 mph - N/A Snow Light Snow
6:35 AM 3.2 °F -7.8 °F -2.2 °F 78% 30.14 in 7.0 mi North 5.8 mph - N/A Snow Light Snow
6:55 AM 2.5 °F -7.0 °F -2.4 °F 80% 30.14 in 5.0 mi North 4.6 mph - N/A Snow Light Snow
7:16 AM 2.3 °F -10.2 °F -2.7 °F 79% 30.14 in 10.0 mi North 6.9 mph - N/A Snow Light Snow
7:35 AM 2.1 °F -10.4 °F -2.7 °F 80% 30.15 in 10.0 mi North 6.9 mph - N/A Snow Light Snow
7:55 AM 1.8 °F -9.5 °F -3.6 °F 78% 30.16 in 10.0 mi North 5.8 mph - N/A   Mostly Cloudy
8:15 AM 1.4 °F -8.3 °F -4.4 °F 77% 30.16 in 5.0 mi North 4.6 mph - N/A   Haze
8:35 AM 1.2 °F -10.1 °F -4.2 °F 78% 30.17 in 4.0 mi North 5.8 mph - N/A   Haze
8:55 AM 1.4 °F -9.9 °F -4.0 °F 78% 30.18 in 4.0 mi North 5.8 mph - N/A Snow Light Snow
9:15 AM 1.4 °F -9.9 °F -4.2 °F 77% 30.19 in 7.0 mi North 5.8 mph - N/A   Overcast
9:35 AM 1.8 °F -10.8 °F -3.6 °F 78% 30.20 in 10.0 mi North 6.9 mph - N/A Snow Light Snow
9:55 AM 1.4 °F -11.3 °F -4.2 °F 77% 30.20 in 4.0 mi North 6.9 mph - N/A Snow Light Snow
10:15 AM 1.4 °F -11.3 °F -4.2 °F 77% 30.21 in 7.0 mi North 6.9 mph - N/A   Overcast
10:35 AM 1.8 °F -12.0 °F -4.0 °F 77% 30.21 in 4.0 mi North 8.1 mph - N/A   Haze
10:55 AM 1.9 °F -9.2 °F -4.0 °F 76% 30.22 in 4.0 mi North 5.8 mph - N/A Snow Light Snow
11:15 AM 2.3 °F -8.8 °F -3.6 °F 76% 30.22 in 5.0 mi North 5.8 mph - N/A Snow Light Snow
11:36 AM 2.3 °F -10.2 °F -4.0 °F 75% 30.22 in 7.0 mi North 6.9 mph - N/A   Overcast
11:55 AM 2.3 °F -10.2 °F -3.8 °F 76% 30.22 in 5.0 mi North 6.9 mph - N/A   Haze
12:15 PM 2.3 °F -8.8 °F -3.5 °F 77% 30.22 in 7.0 mi North 5.8 mph - N/A   Overcast
12:36 PM 2.8 °F -9.5 °F -3.3 °F 76% 30.22 in 5.0 mi North 6.9 mph - N/A   Haze
12:55 PM 3.2 °F -9.1 °F -3.3 °F 74% 30.23 in 7.0 mi North 6.9 mph - N/A Snow Light Snow
1:15 PM 3.2 °F -7.8 °F -3.3 °F 74% 30.22 in 5.0 mi North 5.8 mph - N/A Snow Light Snow
1:36 PM 3.2 °F -7.8 °F -3.6 °F 73% 30.22 in 5.0 mi NNW 5.8 mph - N/A Snow Light Snow
1:55 PM 3.2 °F -7.8 °F -3.8 °F 73% 30.23 in 10.0 mi North 5.8 mph - N/A Snow Light Snow
2:15 PM 3.2 °F -6.2 °F -4.0 °F 72% 30.23 in 10.0 mi North 4.6 mph - N/A Snow Light Snow
2:35 PM 3.2 °F -6.2 °F -4.4 °F 71% 30.23 in 10.0 mi North 4.6 mph - N/A   Scattered Clouds
2:55 PM 3.2 °F -4.2 °F -4.0 °F 72% 30.24 in 10.0 mi North 3.5 mph - N/A   Mostly Cloudy
3:15 PM 3.7 °F - -4.0 °F 70% 30.24 in 10.0 mi Calm Calm - N/A   Overcast
3:35 PM 3.7 °F -5.5 °F -4.0 °F 70% 30.25 in 10.0 mi North 4.6 mph - N/A   Overcast
3:56 PM 3.7 °F - -3.6 °F 71% 30.26 in 10.0 mi Calm Calm - N/A   Overcast
4:15 PM 4.1 °F - -3.1 °F 72% 30.26 in 10.0 mi Calm Calm - N/A   Overcast
4:35 PM 4.5 °F - -2.6 °F 73% 30.27 in 10.0 mi Calm Calm - N/A   Overcast
4:55 PM 4.8 °F -2.3 °F -2.6 °F 72% 30.28 in 10.0 mi WNW 3.5 mph - N/A   Overcast
5:15 PM 4.6 °F - -2.2 °F 73% 30.28 in 10.0 mi Calm Calm - N/A   Overcast
5:35 PM 4.8 °F - -2.2 °F 73% 30.29 in 10.0 mi Calm Calm - N/A   Overcast
5:55 PM 5.0 °F - -1.8 °F 73% 30.30 in 10.0 mi Calm Calm - N/A   Overcast
6:16 PM 4.8 °F - -1.7 °F 75% 30.30 in 10.0 mi Calm Calm - N/A   Overcast
6:35 PM 2.8 °F - -2.9 °F 77% 30.30 in 10.0 mi Calm Calm - N/A   Scattered Clouds
6:55 PM 0.3 °F - -4.0 °F 82% 30.30 in 10.0 mi Calm Calm - N/A   Clear
7:16 PM -1.1 °F - -4.4 °F 86% 30.31 in 10.0 mi Calm Calm - N/A   Clear
7:35 PM -1.8 °F - -6.0 °F 83% 30.31 in 10.0 mi Calm Calm - N/A   Clear
7:55 PM -4.5 °F - -8.1 °F 84% 30.31 in 10.0 mi Calm Calm - N/A   Clear
8:16 PM -5.3 °F - -8.5 °F 86% 30.31 in 10.0 mi Calm Calm - N/A   Clear
8:35 PM -4.9 °F - -8.3 °F 85% 30.32 in 10.0 mi Calm Calm - N/A   Clear
8:55 PM -4.9 °F - -8.5 °F 84% 30.33 in 10.0 mi Calm Calm - N/A   Clear
9:15 PM -7.4 °F - -11.2 °F 84% 30.33 in 10.0 mi Calm Calm - N/A   Clear
9:35 PM -6.9 °F - -11.0 °F 82% 30.33 in 10.0 mi Calm Calm - N/A   Clear
9:55 PM -7.1 °F - -11.4 °F 81% 30.33 in 10.0 mi Calm Calm - N/A   Clear
10:15 PM -7.6 °F - -11.7 °F 82% 30.33 in 10.0 mi Calm Calm - N/A   Clear
10:35 PM -7.2 °F -16.1 °F -11.2 °F 83% 30.33 in 10.0 mi North 3.5 mph - N/A   Clear
10:56 PM -6.2 °F -14.9 °F -10.5 °F 82% 30.33 in 10.0 mi North 3.5 mph - N/A   Clear
11:15 PM -6.7 °F -15.5 °F -11.0 °F 81% 30.33 in 10.0 mi North 3.5 mph - N/A   Clear
11:35 PM -6.7 °F -15.5 °F -10.8 °F 82% 30.33 in 10.0 mi North 3.5 mph - N/A   Clear
11:56 PM -6.3 °F - -10.7 °F 82% 30.33 in 10.0 mi Calm Calm - N/A   Clear